DW8343 Weather Reports


time (UTC)temp
F
wind
direction
speed
knots
gust
knots
rain 1hr
in
rain 24hr
in
rain mn
in
humidity
%
barometer
mb
20260508004530 73 185 0.9 1.7 0.00 0.00 0.00 34 1014.4
20260508004027 73 71 0.9 0.9 0.00 0.00 0.00 33 1014.5
20260508003524 74 223 0.9 2.6 0.00 0.00 0.00 33 1014.4
20260508003022 74 305 0.0 1.7 0.00 0.00 0.00 33 1014.3
20260508002517 74 169 0.9 2.6 0.00 0.00 0.00 32 1014.3
20260508002015 74 246 0.9 1.7 0.00 0.00 0.00 32 1014.5
20260508001511 75 230 0.0 2.6 0.00 0.00 0.00 32 1014.5
20260508001007 76 105 0.9 2.6 0.00 0.00 0.00 31 1014.4
20260508000502 76 8 0.0 0.0 0.00 0.00 0.00 31 1014.4
20260507235959 76 298 0.9 2.6 0.00 0.00 0.00 31 1014.6
20260507235451 76 61 0.9 1.7 0.00 0.00 0.00 32 1014.4
20260507234948 77 245 1.7 1.7 0.00 0.00 0.00 30 1014.4
20260507234445 77 56 0.9 1.7 0.00 0.00 0.00 32 1014.7
20260507233941 77 221 0.9 1.7 0.00 0.00 0.00 30 1014.6
20260507233438 76 92 0.9 2.6 0.00 0.00 0.00 31 1014.6
20260507232937 77 186 2.6 5.2 0.00 0.00 0.00 30 1014.8
20260507232432 77 250 0.9 1.7 0.00 0.00 0.00 30 1014.8
20260507231929 78 141 0.0 2.6 0.00 0.00 0.00 30 1014.9
20260507231420 77 194 0.0 1.7 0.00 0.00 0.00 31 1015.1
20260507230918 76 245 0.0 1.7 0.00 0.00 0.00 31 1014.9
20260507230415 77 18 0.9 3.5 0.00 0.00 0.00 31 1015.0
20260507225914 77 256 2.6 3.5 0.00 0.00 0.00 31 1015.1
20260507225411 78 22 2.6 5.2 0.00 0.00 0.00 30 1015.0
20260507224907 77 8 0.0 1.7 0.00 0.00 0.00 29 1015.3
20260507224403 78 23 0.0 0.9 0.00 0.00 0.00 29 1015.0
20260507223900 78 33 0.0 0.9 0.00 0.00 0.00 28 1015.2
20260507223357 78 129 0.9 2.6 0.00 0.00 0.00 27 1015.1
20260507222854 78 58 1.7 2.6 0.00 0.00 0.00 29 1015.0
20260507222350 78 240 1.7 6.1 0.00 0.00 0.00 27 1015.3
20260507221847 79 215 0.0 0.9 0.00 0.00 0.00 28 1015.2
20260507221343 78 258 1.7 2.6 0.00 0.00 0.00 27 1015.4
20260507220839 77 267 1.7 1.7 0.00 0.00 0.00 27 1015.4
20260507220338 79 15 0.0 1.7 0.00 0.00 0.00 29 1015.4
20260507215833 78 344 0.9 6.1 0.00 0.00 0.00 29 1015.4
20260507215330 79 205 1.7 3.5 0.00 0.00 0.00 28 1015.2
20260507214827 77 20 0.9 1.7 0.00 0.00 0.00 29 1015.3
20260507214325 77 302 0.9 6.1 0.00 0.00 0.00 29 1015.5
20260507213820 79 126 1.7 2.6 0.00 0.00 0.00 26 1015.5
20260507213318 79 50 0.0 1.7 0.00 0.00 0.00 30 1015.6
20260507212814 78 224 1.7 1.7 0.00 0.00 0.00 29 1015.7
20260507212310 77 226 0.9 3.5 0.00 0.00 0.00 28 1015.6
20260507211807 78 236 3.5 6.1 0.00 0.00 0.00 28 1015.9
20260507211304 77 221 0.9 6.1 0.00 0.00 0.00 30 1015.9
20260507210801 77 225 1.7 2.6 0.00 0.00 0.00 29 1015.9
20260507210257 78 223 1.7 2.6 0.00 0.00 0.00 29 1015.9
20260507205753 78 220 0.9 2.6 0.00 0.00 0.00 30 1015.8
20260507205251 79 348 0.0 1.7 0.00 0.00 0.00 28 1016.2
20260507204747 77 221 0.0 1.7 0.00 0.00 0.00 32 1016.2
20260507204245 76 136 0.9 1.7 0.00 0.00 0.00 32 1016.3
20260507203742 77 220 2.6 3.5 0.00 0.00 0.00 33 1016.4
20260507203240 76 274 0.9 2.6 0.00 0.00 0.00 31 1016.7
20260507202735 76 232 1.7 2.6 0.00 0.00 0.00 31 1016.8
20260507202226 77 208 1.7 3.5 0.00 0.00 0.00 31 1016.7
20260507201720 75 49 1.7 2.6 0.00 0.00 0.00 33 1016.9
20260507201217 74 222 1.7 2.6 0.00 0.00 0.00 32 1017.0
20260507200708 75 91 1.7 2.6 0.00 0.00 0.00 31 1017.0
20260507200205 74 52 0.0 2.6 0.00 0.00 0.00 34 1017.1
20260507195701 75 92 1.7 3.5 0.00 0.00 0.00 32 1017.3
20260507195158 74 40 0.9 6.1 0.00 0.00 0.00 35 1017.2
20260507194655 75 267 3.5 5.2 0.00 0.00 0.00 33 1017.4
20260507194151 74 243 2.6 5.2 0.00 0.00 0.00 32 1017.3
20260507193648 73 338 0.9 6.1 0.00 0.00 0.00 36 1017.6
20260507193145 75 249 0.9 3.5 0.00 0.00 0.00 35 1017.7
20260507192641 74 215 0.9 3.5 0.00 0.00 0.00 35 1017.8
20260507192138 74 186 0.9 2.6 0.00 0.00 0.00 34 1017.8
20260507191633 74 93 0.9 6.1 0.00 0.00 0.00 33 1018.0
20260507191130 74 244 1.7 7.0 0.00 0.00 0.00 35 1018.0
20260507190628 74 244 4.3 6.1 0.00 0.00 0.00 35 1018.0
20260507190127 72 273 0.9 0.9 0.00 0.00 0.00 36 1018.1
20260507185625 72 139 1.7 1.7 0.00 0.00 0.00 36 1018.1
20260507185121 72 262 0.0 3.5 0.00 0.00 0.00 38 1018.4
20260507184619 72 233 1.7 5.2 0.00 0.00 0.00 38 1018.3
20260507184117 72 266 1.7 7.8 0.00 0.00 0.00 38 1018.4
20260507183612 72 255 1.7 5.2 0.00 0.00 0.00 39 1018.7
20260507183110 71 265 1.7 3.5 0.00 0.00 0.00 39 1018.5
20260507182606 71 258 1.7 6.1 0.00 0.00 0.00 40 1018.7
20260507182102 71 168 2.6 6.1 0.00 0.00 0.00 38 1018.7
20260507181559 71 137 3.5 5.2 0.00 0.00 0.00 39 1018.9
20260507181055 71 270 0.9 7.8 0.00 0.00 0.00 41 1018.9
20260507180552 70 256 3.5 5.2 0.00 0.00 0.00 41 1018.7
20260507180049 71 242 0.0 2.6 0.00 0.00 0.00 41 1018.9
20260507175545 69 256 2.6 5.2 0.00 0.00 0.00 41 1019.2
20260507175043 70 60 0.9 2.6 0.00 0.00 0.00 42 1019.2
20260507174539 70 18 0.9 3.5 0.00 0.00 0.00 43 1019.2
20260507174037 69 259 2.6 2.6 0.00 0.00 0.00 44 1019.4
20260507173534 68 258 0.9 3.5 0.00 0.00 0.00 43 1019.7
20260507173031 69 280 3.5 5.2 0.00 0.00 0.00 41 1019.7
20260507172527 69 197 3.5 5.2 0.00 0.00 0.00 42 1019.9
20260507172024 67 50 1.7 5.2 0.00 0.00 0.00 45 1019.7
20260507171519 69 354 0.0 0.9 0.00 0.00 0.00 47 1020.0
20260507171017 68 243 0.9 2.6 0.00 0.00 0.00 43 1020.0
20260507170513 67 139 2.6 5.2 0.00 0.00 0.00 42 1020.3
20260507170010 67 206 1.7 5.2 0.00 0.00 0.00 43 1020.2
20260507165506 67 88 0.0 5.2 0.00 0.00 0.00 43 1020.3
20260507165003 67 28 0.9 2.6 0.00 0.00 0.00 45 1020.3
20260507164459 67 196 2.6 3.5 0.00 0.00 0.00 44 1020.5
20260507163956 66 97 1.7 2.6 0.00 0.00 0.00 44 1020.4
20260507163453 67 239 0.9 1.7 0.00 0.00 0.00 43 1020.7
20260507162950 66 283 1.7 5.2 0.00 0.00 0.00 46 1020.9
20260507162445 66 328 1.7 5.2 0.00 0.00 0.00 46 1020.7
20260507161943 65 91 0.9 3.5 0.00 0.00 0.00 45 1020.8
20260507161439 65 206 2.6 6.1 0.00 0.00 0.00 45 1020.8
20260507160936 65 258 0.9 5.2 0.00 0.00 0.00 44 1020.7
20260507160432 64 62 0.0 2.6 0.00 0.00 0.00 46 1020.8
20260507155927 64 247 3.5 3.5 0.00 0.00 0.00 44 1020.9
20260507155424 64 170 2.6 5.2 0.00 0.00 0.00 43 1020.8
20260507154921 63 280 0.9 1.7 0.00 0.00 0.00 46 1020.9
20260507154418 64 176 2.6 6.1 0.00 0.00 0.00 45 1020.9
20260507153915 65 239 0.9 2.6 0.00 0.00 0.00 47 1020.9
20260507153412 64 335 0.9 3.5 0.00 0.00 0.00 46 1021.2
20260507152908 64 6 2.6 3.5 0.00 0.00 0.00 46 1021.0
20260507152404 64 222 1.7 2.6 0.00 0.00 0.00 46 1021.0
20260507151900 64 89 1.7 6.1 0.00 0.00 0.00 46 1021.2
20260507151356 63 306 1.7 5.2 0.00 0.00 0.00 47 1021.1
20260507150854 63 96 0.9 2.6 0.00 0.00 0.00 48 1021.1
20260507150351 62 249 1.7 2.6 0.00 0.00 0.00 51 1021.4
20260507145847 63 200 0.9 0.9 0.00 0.00 0.00 50 1021.3
20260507145343 62 14 0.0 5.2 0.00 0.00 0.00 52 1021.3
20260507144840 62 0 1.7 3.5 0.00 0.00 0.00 50 1021.5
20260507144337 61 239 2.6 3.5 0.00 0.00 0.00 52 1021.7
20260507143834 60 239 1.7 2.6 0.00 0.00 0.00 54 1021.6
20260507143331 60 340 0.9 1.7 0.00 0.00 0.00 54 1021.5
20260507142827 60 272 0.9 2.6 0.00 0.00 0.00 56 1021.8
20260507142324 59 250 0.0 2.6 0.00 0.00 0.00 60 1021.7
20260507141821 60 122 1.7 1.7 0.00 0.00 0.00 60 1021.6
20260507141317 59 261 0.0 0.9 0.00 0.00 0.00 60 1021.7
20260507140814 58 55 0.0 0.0 0.00 0.00 0.00 64 1021.8
20260507140311 58 216 0.0 0.9 0.00 0.00 0.00 64 1022.0
20260507135809 56 276 0.0 0.9 0.00 0.00 0.00 67 1022.1
20260507135306 56 192 0.0 1.7 0.00 0.00 0.00 67 1022.2
20260507134802 56 165 0.0 1.7 0.00 0.00 0.00 69 1022.0
20260507134258 57 186 0.0 0.9 0.00 0.00 0.00 67 1021.9
20260507133754 57 347 0.0 0.9 0.00 0.00 0.00 67 1021.9
20260507133250 56 347 0.0 0.0 0.00 0.00 0.00 69 1021.8
20260507132749 55 347 0.0 0.0 0.00 0.00 0.00 71 1022.1
20260507132245 54 347 0.0 0.0 0.00 0.00 0.00 73 1022.0
20260507131742 52 166 0.0 0.9 0.00 0.00 0.00 78 1021.9
20260507131239 50 339 0.0 0.0 0.00 0.00 0.00 83 1022.0
20260507130735 49 335 0.0 0.0 0.00 0.00 0.00 84 1021.9
20260507130233 48 335 0.0 0.0 0.00 0.00 0.00 86 1021.8
20260507125732 48 335 0.0 0.0 0.00 0.00 0.00 88 1021.8
20260507125229 47 335 0.0 0.0 0.00 0.00 0.00 90 1021.8
20260507124726 46 335 0.0 0.0 0.00 0.00 0.00 92 1021.6
20260507124222 46 335 0.0 0.0 0.00 0.00 0.00 93 1021.6
20260507123721 45 335 0.0 0.0 0.00 0.00 0.00 93 1021.6
20260507123218 45 335 0.0 0.0 0.00 0.00 0.00 94 1021.7
20260507122713 44 335 0.0 0.0 0.00 0.00 0.00 94 1021.4
20260507122209 44 335 0.0 0.0 0.00 0.00 0.00 94 1021.6
20260507121705 43 335 0.0 0.0 0.00 0.00 0.00 94 1021.5
20260507121201 43 335 0.0 0.0 0.00 0.00 0.00 94 1021.3
20260507120657 43 335 0.0 0.0 0.00 0.00 0.00 94 1021.1
20260507120154 43 335 0.0 0.0 0.00 0.00 0.00 93 1021.0
20260507115651 43 335 0.0 0.0 0.00 0.00 0.00 93 1020.9
20260507115146 43 335 0.0 0.0 0.00 0.00 0.00 93 1021.2
20260507114643 43 335 0.0 0.0 0.00 0.00 0.00 93 1021.1
20260507114140 43 335 0.0 0.0 0.00 0.00 0.00 93 1021.1
20260507113637 43 335 0.0 0.0 0.00 0.00 0.00 93 1021.2
20260507113134 43 335 0.0 0.0 0.00 0.00 0.00 93 1021.0
20260507112632 43 335 0.0 0.0 0.00 0.00 0.00 93 1021.1
20260507112128 43 335 0.0 0.0 0.00 0.00 0.00 93 1020.9
20260507111626 43 335 0.0 0.0 0.00 0.00 0.00 93 1021.2
20260507111122 43 335 0.0 0.0 0.00 0.00 0.00 92 1021.1
20260507110618 43 335 0.0 0.0 0.00 0.00 0.00 92 1021.1
20260507110115 43 335 0.0 0.0 0.00 0.00 0.00 92 1021.0
20260507105612 43 335 0.0 0.0 0.00 0.00 0.00 92 1021.2
20260507105108 43 335 0.0 0.0 0.00 0.00 0.00 92 1021.2
20260507104606 43 335 0.0 0.0 0.00 0.00 0.00 92 1021.1
20260507104102 44 335 0.0 0.0 0.00 0.00 0.00 92 1021.2
20260507103558 43 335 0.0 0.0 0.00 0.00 0.00 92 1021.0
20260507103055 43 335 0.0 0.0 0.00 0.00 0.00 92 1021.1
20260507102551 43 335 0.0 0.0 0.00 0.00 0.00 92 1021.0
20260507102047 44 335 0.0 0.0 0.00 0.00 0.00 91 1021.0
20260507101543 43 335 0.0 0.0 0.00 0.00 0.00 91 1021.2
20260507101039 43 335 0.0 0.0 0.00 0.00 0.00 91 1021.1
20260507100537 44 335 0.0 0.0 0.00 0.00 0.00 91 1020.9
20260507100035 44 335 0.0 0.0 0.00 0.00 0.00 91 1020.6
20260507095533 44 335 0.0 0.0 0.00 0.00 0.00 91 1020.8
20260507095029 44 335 0.0 0.0 0.00 0.00 0.00 91 1020.7
20260507094525 44 335 0.0 0.0 0.00 0.00 0.00 91 1020.8
20260507094022 44 335 0.0 0.0 0.00 0.00 0.00 91 1020.8
20260507093520 44 335 0.0 0.0 0.00 0.00 0.00 91 1021.0
20260507093018 44 335 0.0 0.0 0.00 0.00 0.00 91 1021.0
20260507092514 44 335 0.0 0.0 0.00 0.00 0.00 92 1020.9
20260507092011 44 335 0.0 0.0 0.00 0.00 0.00 92 1020.7
20260507091508 43 335 0.0 0.0 0.00 0.00 0.00 91 1021.1
20260507091004 43 335 0.0 0.0 0.00 0.00 0.00 91 1020.8
20260507090500 44 335 0.0 0.0 0.00 0.00 0.00 91 1020.9
20260507085956 43 335 0.0 0.0 0.00 0.00 0.00 91 1020.6
20260507085454 44 335 0.0 0.0 0.00 0.00 0.00 90 1020.4
20260507084950 44 335 0.0 0.0 0.00 0.00 0.00 90 1020.6
20260507084447 44 335 0.0 0.0 0.00 0.00 0.00 90 1020.7
20260507083944 44 335 0.0 0.0 0.00 0.00 0.00 89 1021.0
20260507083441 44 335 0.0 0.0 0.00 0.00 0.00 89 1020.5
20260507082937 44 335 0.0 0.0 0.00 0.00 0.00 89 1020.5
20260507082433 45 335 0.0 0.0 0.00 0.00 0.00 88 1020.7
20260507081930 44 335 0.0 0.0 0.00 0.00 0.00 88 1021.2
20260507081426 44 335 0.0 0.0 0.00 0.00 0.00 88 1021.0
20260507080923 45 335 0.0 0.0 0.00 0.00 0.00 88 1021.0
20260507080419 45 335 0.0 0.0 0.00 0.00 0.00 88 1020.9
20260507075920 45 335 0.0 0.0 0.00 0.00 0.00 87 1020.7
20260507075416 45 335 0.0 0.0 0.00 0.00 0.00 87 1020.8
20260507074913 46 335 0.0 0.0 0.00 0.00 0.00 87 1020.7
20260507074410 46 335 0.0 0.0 0.00 0.00 0.00 87 1020.7
20260507073908 45 335 0.0 0.0 0.00 0.00 0.00 87 1021.0
20260507073404 45 335 0.0 0.0 0.00 0.00 0.00 87 1021.2
20260507072901 45 335 0.0 0.0 0.00 0.00 0.00 87 1021.0
20260507072358 45 335 0.0 0.0 0.00 0.00 0.00 87 1020.9
20260507071856 45 335 0.0 0.0 0.00 0.00 0.00 86 1020.9
20260507071353 45 335 0.0 0.0 0.00 0.00 0.00 86 1021.0
20260507070848 45 335 0.0 0.0 0.00 0.00 0.00 86 1020.9
20260507070346 45 335 0.0 0.0 0.00 0.00 0.00 86 1020.8
20260507065843 45 335 0.0 0.0 0.00 0.00 0.00 85 1020.8
20260507065340 45 335 0.0 0.0 0.00 0.00 0.00 85 1020.7
20260507064837 46 335 0.0 0.0 0.00 0.00 0.00 84 1020.6
20260507064335 46 335 0.0 0.0 0.00 0.00 0.00 82 1020.5
20260507063833 46 335 0.0 0.0 0.00 0.00 0.00 82 1020.9
20260507063329 46 335 0.0 0.0 0.00 0.00 0.00 82 1020.9
20260507062826 47 335 0.0 0.0 0.00 0.00 0.00 81 1020.9
20260507062323 47 335 0.0 0.0 0.00 0.00 0.00 80 1021.0
20260507061821 47 336 0.0 0.9 0.00 0.00 0.00 80 1020.8
20260507061319 47 295 0.0 0.0 0.00 0.00 0.00 80 1021.4
20260507060817 47 295 0.0 0.0 0.00 0.00 0.00 78 1021.4
20260507060313 48 295 0.0 0.0 0.00 0.00 0.00 78 1021.5
20260507055810 48 295 0.0 0.0 0.00 0.00 0.00 77 1021.6
20260507055306 49 295 0.0 0.0 0.00 0.00 0.00 75 1021.6
20260507054802 49 295 0.0 0.0 0.00 0.00 0.00 75 1021.6
20260507054258 49 295 0.0 0.0 0.00 0.00 0.00 73 1021.6
20260507053756 50 295 0.0 0.0 0.00 0.00 0.00 72 1021.5
20260507053253 50 308 0.0 0.0 0.00 0.00 0.00 71 1021.5
20260507052752 50 308 0.0 0.0 0.00 0.00 0.00 70 1021.5
20260507052248 50 308 0.0 0.0 0.00 0.00 0.00 70 1021.5
20260507051746 50 308 0.0 0.0 0.00 0.00 0.00 71 1021.3
20260507051243 50 308 0.0 0.0 0.00 0.00 0.00 70 1021.1
20260507050739 50 308 0.0 0.0 0.00 0.00 0.00 70 1021.2
20260507050237 50 308 0.0 0.0 0.00 0.00 0.00 71 1021.2
20260507045733 50 308 0.0 0.0 0.00 0.00 0.00 71 1021.3
20260507045229 50 308 0.0 0.0 0.00 0.00 0.00 70 1021.2
20260507044727 51 308 0.0 0.0 0.00 0.00 0.00 68 1021.2
20260507044223 51 308 0.0 0.0 0.00 0.00 0.00 67 1021.2
20260507043720 52 309 0.0 0.0 0.00 0.00 0.00 66 1021.0
20260507043216 52 309 0.0 0.0 0.00 0.00 0.00 65 1020.9
20260507042713 53 306 0.0 0.0 0.00 0.00 0.00 64 1020.8
20260507042208 53 293 0.0 0.0 0.00 0.00 0.00 63 1020.5
20260507041706 53 41 0.0 0.9 0.00 0.00 0.00 62 1020.1
20260507041202 53 18 0.9 0.9 0.00 0.00 0.00 62 1020.4
20260507040659 53 44 0.0 3.5 0.00 0.00 0.00 62 1020.3
20260507040155 53 61 0.0 0.9 0.00 0.00 0.00 63 1020.0
20260507035651 53 61 0.0 0.9 0.00 0.00 0.00 64 1019.8
20260507035147 53 23 0.0 0.9 0.00 0.00 0.00 63 1020.2
20260507034644 53 57 0.0 0.0 0.00 0.00 0.00 65 1020.2
20260507034142 53 57 0.0 0.0 0.00 0.00 0.00 66 1020.5
20260507033640 53 57 0.0 0.0 0.00 0.00 0.00 65 1020.5
20260507033137 53 57 0.0 0.9 0.00 0.00 0.00 64 1020.2
20260507032635 53 57 0.9 1.7 0.00 0.00 0.00 65 1020.3
20260507032130 53 57 0.0 0.0 0.00 0.00 0.00 65 1020.3
20260507031627 53 57 0.0 0.0 0.00 0.00 0.00 66 1020.3
20260507031124 53 57 0.0 0.0 0.00 0.00 0.00 64 1020.0
20260507030620 53 57 0.0 0.0 0.00 0.00 0.00 65 1019.9
20260507030118 54 57 0.0 0.0 0.00 0.00 0.00 65 1020.1
20260507025615 54 57 0.0 0.0 0.00 0.00 0.00 64 1019.9
20260507025112 54 57 0.0 0.0 0.00 0.00 0.00 64 1019.9
20260507024610 54 57 0.0 0.0 0.00 0.00 0.00 63 1019.9
20260507024102 55 57 0.0 0.0 0.00 0.00 0.00 62 1019.7
20260507023557 55 57 0.0 0.0 0.00 0.00 0.00 62 1019.6
20260507023055 55 57 0.0 0.0 0.00 0.00 0.00 61 1019.5
20260507022552 56 57 0.0 0.0 0.00 0.00 0.00 60 1019.4
20260507022047 56 57 0.0 0.0 0.00 0.00 0.00 58 1019.4
20260507021543 57 57 0.9 1.7 0.00 0.00 0.00 57 1019.2
20260507021040 57 96 0.0 0.0 0.00 0.00 0.00 57 1019.2
20260507020538 57 40 0.0 0.0 0.00 0.00 0.00 56 1019.3
20260507020033 58 40 0.0 0.0 0.00 0.00 0.00 55 1018.9
20260507015532 58 320 0.0 0.0 0.00 0.00 0.00 55 1018.8
20260507015029 58 10 0.0 0.0 0.00 0.00 0.00 54 1019.0
20260507014525 59 344 0.0 0.0 0.00 0.00 0.00 54 1018.9
20260507014021 59 2 0.0 0.9 0.00 0.00 0.00 52 1018.8
20260507013518 60 105 0.9 0.9 0.00 0.00 0.00 52 1018.7
20260507013015 60 105 0.0 0.9 0.00 0.00 0.00 51 1018.7
20260507012512 60 37 0.9 1.7 0.00 0.00 0.00 51 1018.6
20260507012008 60 14 0.9 1.7 0.00 0.00 0.00 51 1018.8
20260507011506 61 29 0.0 1.7 0.00 0.00 0.00 50 1018.7
20260507011001 61 350 1.7 2.6 0.00 0.00 0.00 50 1018.8
20260507010456 61 352 0.9 1.7 0.00 0.00 0.00 50 1018.6
20260507005948 61 14 0.9 0.9 0.00 0.00 0.00 50 1018.5
20260507005445 62 55 0.9 1.7 0.00 0.00 0.00 50 1018.6
20260507004941 62 7 0.0 0.9 0.00 0.00 0.00 49 1018.5